TimeEDT,TemperatureF,Dew PointF,Humidity,Sea Level PressureIn,VisibilityMPH,Wind Direction,Wind SpeedMPH,Gust SpeedMPH,PrecipitationIn,Events,Conditions,WindDirDegrees,DateUTC
12:58 AM,79.0,75.0,88,29.96,9.0,WSW,10.4,19.6,N/A,,Mostly Cloudy,240,2013-08-02 04:58:00
1:58 AM,79.0,75.0,88,29.94,9.0,WSW,11.5,-,N/A,,Partly Cloudy,250,2013-08-02 05:58:00
2:58 AM,78.1,75.0,90,29.91,9.0,WSW,12.7,19.6,N/A,,Clear,250,2013-08-02 06:58:00
3:58 AM,78.1,73.9,87,29.92,10.0,West,9.2,-,N/A,,Clear,260,2013-08-02 07:58:00
4:58 AM,78.1,73.0,84,29.94,10.0,West,11.5,-,N/A,,Clear,270,2013-08-02 08:58:00
5:58 AM,77.0,73.9,90,29.96,10.0,West,8.1,-,N/A,,Overcast,280,2013-08-02 09:58:00
6:58 AM,77.0,75.0,94,29.99,9.0,West,5.8,-,N/A,,Mostly Cloudy,280,2013-08-02 10:58:00
7:58 AM,78.1,75.0,90,29.99,9.0,West,6.9,-,N/A,,Overcast,260,2013-08-02 11:58:00
8:58 AM,81.0,73.9,79,30.01,10.0,West,8.1,-,N/A,,Clear,280,2013-08-02 12:58:00
9:58 AM,82.0,75.0,79,30.02,9.0,West,10.4,-,N/A,,Clear,260,2013-08-02 13:58:00
10:58 AM,82.9,75.0,77,30.01,8.0,SW,12.7,-,N/A,,Partly Cloudy,220,2013-08-02 14:58:00
11:58 AM,82.9,75.9,79,30.03,10.0,SSW,10.4,-,N/A,,Clear,210,2013-08-02 15:58:00
12:58 PM,81.0,75.0,82,30.03,10.0,SW,12.7,-,N/A,,Clear,220,2013-08-02 16:58:00
1:58 PM,82.9,75.9,79,30.04,10.0,SW,12.7,-,N/A,,Clear,220,2013-08-02 17:58:00
2:58 PM,82.9,77.0,82,30.02,9.0,South,13.8,-,N/A,,Clear,190,2013-08-02 18:58:00
3:58 PM,82.9,77.0,82,30.00,10.0,South,15.0,-,N/A,,Clear,190,2013-08-02 19:58:00
4:58 PM,82.0,75.9,82,30.00,9.0,SSW,13.8,21.9,N/A,,Clear,200,2013-08-02 20:58:00
5:58 PM,81.0,75.9,85,30.00,9.0,SSW,15.0,-,N/A,,Partly Cloudy,200,2013-08-02 21:58:00
6:58 PM,80.1,77.0,90,30.02,9.0,SSW,16.1,-,N/A,,Clear,210,2013-08-02 22:58:00
7:58 PM,80.1,77.0,90,30.03,9.0,SW,15.0,23.0,N/A,,Clear,220,2013-08-02 23:58:00
8:58 PM,80.1,77.0,90,30.03,10.0,SW,15.0,-,N/A,,Clear,220,2013-08-03 00:58:00
9:58 PM,80.1,75.9,87,30.04,10.0,SW,13.8,-,N/A,,Mostly Cloudy,220,2013-08-03 01:58:00
10:58 PM,80.1,77.0,90,30.06,10.0,SW,12.7,-,N/A,,Overcast,230,2013-08-03 02:58:00
11:58 PM,80.1,77.0,90,30.05,10.0,SW,10.4,-,N/A,,Mostly Cloudy,230,2013-08-03 03:58:00